Total_Precipitation_Accumulation
1.70 1.86 1.84 1.79 1.81 1.79 2.12 2.42 2.53 2.35 2.25 2.17 1.99 1.90 1.98 2.09 2.13 1.85 1.68 1.75 1.65 1.50 1.42 1.38 1.37 1.45 1.58 1.70 1.78 1.86 1.99 2.21 2.42 2.52 2.65 2.97 3.33 3.70
1.82 1.87 1.85 1.85 1.95 1.88 2.01 2.23 2.41 2.59 2.45 2.04 1.89 1.81 1.77 1.62 1.71 1.54 1.52 1.69 1.57 1.42 1.38 1.38 1.38 1.39 1.39 1.42 1.47 1.49 1.52 1.57 1.68 1.78 1.83 1.94 2.14 2.50
2.05 2.04 2.09 2.19 2.16 2.07 2.15 2.22 2.35 2.62 2.59 2.14 2.04 2.04 1.91 1.71 1.63 1.55 1.51 1.59 1.60 1.69 1.54 1.44 1.35 1.27 1.25 1.25 1.28 1.33 1.38 1.44 1.50 1.55 1.62 1.64 1.61 1.66
2.18 2.39 2.35 2.38 2.30 2.17 2.27 2.21 2.27 2.55 2.49 2.27 2.29 2.30 2.24 2.03 1.89 1.72 1.55 1.53 1.61 1.82 1.59 1.44 1.36 1.29 1.26 1.26 1.25 1.23 1.23 1.26 1.31 1.34 1.37 1.39 1.40 1.41
2.21 2.31 2.35 2.49 2.38 2.28 2.22 2.19 2.27 2.43 2.51 2.35 2.32 2.47 2.39 2.14 2.00 1.77 1.58 1.63 1.47 1.61 1.59 1.50 1.47 1.38 1.32 1.26 1.24 1.21 1.17 1.16 1.19 1.25 1.30 1.35 1.36 1.31
2.19 2.11 2.19 2.42 2.48 2.46 2.28 2.24 2.34 2.47 2.50 2.44 2.39 2.49 2.51 2.45 2.28 2.04 1.92 1.77 1.60 1.49 1.56 1.47 1.44 1.38 1.31 1.23 1.18 1.16 1.17 1.15 1.12 1.10 1.09 1.08 1.09 1.10
2.00 1.89 1.88 2.08 2.32 2.40 2.20 2.19 2.31 2.33 2.34 2.37 2.38 2.43 2.48 2.61 2.50 2.22 1.98 1.83 1.61 1.43 1.45 1.35 1.31 1.23 1.26 1.27 1.19 1.11 1.04 1.02 0.99 0.96 0.95 0.94 0.92 0.92
2.00 1.92 1.80 1.77 1.80 1.93 2.06 2.18 2.30 2.26 2.26 2.41 2.57 2.62 2.61 2.61 2.60 2.39 2.11 1.88 1.73 1.53 1.57 1.55 1.47 1.41 1.24 1.14 1.19 1.11 1.02 0.99 0.97 0.91 0.87 0.87 0.88 0.88
1.85 1.85 1.58 1.42 1.53 1.46 1.64 1.80 1.92 1.99 2.01 2.17 2.33 2.43 2.55 2.69 2.73 2.51 2.31 2.12 1.87 1.67 1.64 1.53 1.43 1.42 1.32 1.25 1.33 1.17 1.10 1.06 1.02 0.99 0.93 0.87 0.84 0.85
1.57 1.58 1.53 1.46 1.44 1.49 1.49 1.48 1.47 1.55 1.65 1.67 1.79 2.03 2.28 2.49 2.65 2.57 2.46 2.17 1.89 1.67 1.61 1.50 1.35 1.32 1.26 1.28 1.39 1.28 1.16 1.06 0.97 0.91 0.87 0.83 0.78 0.77
1.53 1.56 1.59 1.52 1.63 1.50 1.45 1.49 1.50 1.52 1.56 1.60 1.62 1.78 2.04 2.21 2.32 2.39 2.35 2.21 1.97 1.74 1.66 1.65 1.46 1.37 1.31 1.20 1.20 1.26 1.14 1.06 0.99 0.93 0.87 0.83 0.81 0.79
1.57 1.58 1.57 1.46 1.48 1.34 1.28 1.41 1.43 1.45 1.49 1.49 1.51 1.54 1.62 1.94 2.24 2.08 2.09 2.12 1.93 1.67 1.43 1.48 1.46 1.45 1.36 1.10 0.98 0.98 0.96 1.00 1.03 1.00 0.96 0.91 0.92 0.83
1.66 1.60 1.59 1.51 1.23 1.15 1.11 1.13 1.19 1.23 1.32 1.33 1.29 1.29 1.39 1.54 1.79 1.88 1.85 1.80 1.76 1.53 1.33 1.32 1.28 1.31 1.25 1.04 0.88 0.84 0.84 0.85 0.84 0.91 0.97 0.97 0.93 0.84
1.60 1.61 1.60 1.46 1.17 1.05 0.95 0.94 0.94 0.91 0.99 1.11 1.17 1.19 1.24 1.36 1.50 1.65 1.73 1.77 1.66 1.51 1.42 1.39 1.26 1.20 1.15 1.02 0.89 0.80 0.82 0.83 0.84 0.83 0.85 1.02 1.00 0.94
1.41 1.56 1.46 1.27 1.09 0.93 0.87 0.84 0.80 0.76 0.88 1.03 1.11 1.11 1.12 1.20 1.45 1.73 1.89 1.97 1.90 1.63 1.48 1.43 1.37 1.28 1.25 1.11 0.95 0.84 0.82 0.81 0.80 0.85 0.85 0.89 0.93 0.93
1.21 1.29 1.29 1.26 1.19 1.08 0.97 0.87 0.78 0.84 0.94 1.03 1.15 1.27 1.38 1.46 1.55 1.64 1.81 1.88 1.90 1.72 1.49 1.42 1.38 1.39 1.30 1.11 1.01 0.92 0.83 0.79 0.79 0.85 0.91 0.91 0.97 1.02
1.20 1.22 1.24 1.32 1.36 1.36 1.32 1.22 1.14 1.12 1.08 1.07 1.22 1.35 1.36 1.37 1.40 1.50 1.66 1.70 1.60 1.49 1.37 1.28 1.33 1.34 1.28 1.19 1.07 0.92 0.84 0.78 0.76 0.85 0.99 1.01 0.96 0.97
1.09 1.21 1.36 1.45 1.53 1.55 1.53 1.41 1.26 1.14 1.08 1.11 1.18 1.27 1.31 1.32 1.36 1.47 1.60 1.60 1.46 1.35 1.33 1.21 1.23 1.38 1.36 1.21 1.02 0.94 0.88 0.81 0.79 0.89 0.97 1.01 0.97 0.89
0.94 1.08 1.24 1.32 1.39 1.41 1.41 1.34 1.28 1.22 1.21 1.24 1.30 1.36 1.42 1.42 1.42 1.45 1.54 1.57 1.47 1.35 1.32 1.30 1.24 1.27 1.26 1.03 0.80 0.75 0.85 0.88 0.93 0.99 1.03 1.00 0.93 0.84
0.81 0.93 1.06 1.16 1.27 1.40 1.46 1.43 1.40 1.36 1.30 1.27 1.35 1.38 1.43 1.48 1.45 1.40 1.45 1.52 1.49 1.43 1.37 1.31 1.25 1.16 1.11 1.06 0.92 0.81 0.82 0.96 1.08 1.10 1.06 1.07 1.02 0.97
0.81 0.84 0.91 1.05 1.23 1.39 1.51 1.58 1.59 1.52 1.39 1.36 1.38 1.40 1.39 1.46 1.43 1.36 1.40 1.52 1.51 1.44 1.27 1.10 1.04 1.18 1.27 1.39 1.24 0.91 0.83 0.88 0.99 1.08 1.13 1.19 1.15 1.12
0.89 0.90 0.95 1.04 1.21 1.38 1.46 1.48 1.53 1.48 1.44 1.41 1.36 1.40 1.43 1.43 1.39 1.36 1.38 1.45 1.41 1.35 1.25 1.20 1.31 1.51 1.59 1.52 1.26 1.05 0.99 0.95 0.98 1.03 1.04 1.05 1.07 1.03
0.98 0.94 0.93 1.00 1.14 1.28 1.35 1.40 1.44 1.42 1.36 1.36 1.35 1.37 1.44 1.48 1.50 1.48 1.45 1.47 1.49 1.51 1.60 1.57 1.53 1.56 1.56 1.51 1.39 1.22 1.10 1.07 1.09 1.11 0.99 0.91 0.86 0.82